Anzahl Datensätze: 288
min. Temperatur: 2.8 °C
max. Temperatur: 19.9 °C
max. Windgeschwindigkeit: 0.0 km/h
Niederschlagsumme: 0.0 mm
| Datum |
Zeit |
Temp °C |
Feuchte % |
Taupunkt °C |
Luftdruck hPa |
Wind km/h |
Windrichtung |
Strahlung w/m² |
Niederschlag mm |
|---|---|---|---|---|---|---|---|---|---|
| 19.04.2022 | 00:04 | 7.8 | 67 | 2.1 | 1014.1 | 0.0 | N | 5 | 0.0 |
| 19.04.2022 | 00:08 | 7.7 | 67 | 2.0 | 1014.2 | 0.0 | N | 5 | 0.0 |
| 19.04.2022 | 00:14 | 7.7 | 67 | 2.0 | 1014.1 | 0.0 | N | 5 | 0.0 |
| 19.04.2022 | 00:18 | 7.6 | 68 | 2.1 | 1014.1 | 0.0 | N | 5 | 0.0 |
| 19.04.2022 | 00:24 | 7.3 | 69 | 2.0 | 1014.0 | 0.0 | N | 5 | 0.0 |
| 19.04.2022 | 00:28 | 7.2 | 70 | 2.1 | 1014.0 | 0.0 | N | 5 | 0.0 |
| 19.04.2022 | 00:34 | 6.9 | 71 | 2.0 | 1014.0 | 0.0 | N | 7 | 0.0 |
| 19.04.2022 | 00:38 | 6.7 | 72 | 2.0 | 1013.9 | 0.0 | N | 9 | 0.0 |
| 19.04.2022 | 00:44 | 6.4 | 73 | 1.9 | 1013.9 | 0.0 | N | 334 | 0.0 |
| 19.04.2022 | 00:48 | 6.3 | 73 | 1.8 | 1013.9 | 0.0 | N | 410 | 0.0 |
| 19.04.2022 | 00:54 | 6.3 | 74 | 2.0 | 1013.9 | 0.0 | N | 617 | 0.0 |
| 19.04.2022 | 00:58 | 6.2 | 74 | 1.9 | 1013.8 | 0.0 | N | 1661 | 0.0 |
| 19.04.2022 | 01:04 | 6.1 | 75 | 2.0 | 1013.7 | 0.0 | N | 1765 | 0.0 |
| 19.04.2022 | 01:08 | 5.8 | 75 | 1.7 | 1013.7 | 0.0 | N | 1760 | 0.0 |
| 19.04.2022 | 01:14 | 5.8 | 76 | 1.9 | 1013.6 | 0.0 | N | 1782 | 0.0 |
| 19.04.2022 | 01:18 | 5.8 | 76 | 1.9 | 1013.6 | 0.0 | N | 0.0 | |
| 19.04.2022 | 01:24 | 5.6 | 76 | 1.7 | 1013.5 | 0.0 | N | 0.0 | |
| 19.04.2022 | 01:28 | 5.6 | 77 | 1.9 | 1013.5 | 0.0 | N | 0.0 | |
| 19.04.2022 | 01:34 | 5.4 | 77 | 1.7 | 1013.4 | 0.0 | N | 0.0 | |
| 19.04.2022 | 01:38 | 5.6 | 76 | 1.7 | 1013.4 | 0.0 | N | 0.0 | |
| 19.04.2022 | 01:44 | 5.8 | 75 | 1.7 | 1013.3 | 0.0 | N | 0.0 | |
| 19.04.2022 | 01:48 | 5.8 | 74 | 1.5 | 1013.3 | 0.0 | NW | 0.0 | |
| 19.04.2022 | 01:54 | 5.7 | 74 | 1.4 | 1013.1 | 0.0 | NNW | 0.0 | |
| 19.04.2022 | 01:58 | 5.8 | 74 | 1.5 | 1013.1 | 0.0 | NNW | 0.0 | |
| 19.04.2022 | 02:04 | 5.7 | 74 | 1.4 | 1013.1 | 0.0 | NNO | 0.0 | |
| 19.04.2022 | 02:08 | 5.8 | 74 | 1.5 | 1013.1 | 0.0 | N | 0.0 | |
| 19.04.2022 | 02:14 | 5.6 | 74 | 1.3 | 1013.0 | 0.0 | NNW | 0.0 | |
| 19.04.2022 | 02:18 | 5.5 | 75 | 1.4 | 1013.0 | 0.0 | N | 0.0 | |
| 19.04.2022 | 02:24 | 5.4 | 76 | 1.5 | 1012.9 | 0.0 | N | 0.0 | |
| 19.04.2022 | 02:28 | 5.3 | 76 | 1.4 | 1012.9 | 0.0 | N | 0.0 | |
| 19.04.2022 | 02:34 | 5.3 | 76 | 1.4 | 1012.8 | 0.0 | N | 0.0 | |
| 19.04.2022 | 02:38 | 5.3 | 76 | 1.4 | 1012.8 | 0.0 | N | 0.0 | |
| 19.04.2022 | 02:44 | 5.1 | 76 | 1.2 | 1012.8 | 0.0 | N | 0.0 | |
| 19.04.2022 | 02:48 | 4.9 | 77 | 1.2 | 1012.8 | 0.0 | N | 0.0 | |
| 19.04.2022 | 02:54 | 4.6 | 79 | 1.3 | 1012.8 | 0.0 | N | 0.0 | |
| 19.04.2022 | 02:58 | 4.6 | 79 | 1.3 | 1012.8 | 0.0 | N | 0.0 | |
| 19.04.2022 | 03:04 | 4.6 | 79 | 1.3 | 1012.7 | 0.0 | N | 0.0 | |
| 19.04.2022 | 03:08 | 4.6 | 79 | 1.3 | 1012.7 | 0.0 | N | 0.0 | |
| 19.04.2022 | 03:14 | 4.5 | 78 | 1.0 | 1012.7 | 0.0 | N | 0.0 | |
| 19.04.2022 | 03:18 | 4.6 | 78 | 1.1 | 1012.6 | 0.0 | N | 0.0 | |
| 19.04.2022 | 03:24 | 4.7 | 78 | 1.2 | 1012.6 | 0.0 | N | 0.0 | |
| 19.04.2022 | 03:28 | 4.4 | 78 | 0.9 | 1012.6 | 0.0 | N | 0.0 | |
| 19.04.2022 | 03:34 | 4.3 | 79 | 1.0 | 1012.6 | 0.0 | N | 0.0 | |
| 19.04.2022 | 03:38 | 4.3 | 79 | 1.0 | 1012.6 | 0.0 | N | 0.0 | |
| 19.04.2022 | 03:44 | 4.2 | 80 | 1.1 | 1012.6 | 0.0 | N | 0.0 | |
| 19.04.2022 | 03:48 | 4.1 | 80 | 1.0 | 1012.6 | 0.0 | N | 0.0 | |
| 19.04.2022 | 03:54 | 4.2 | 80 | 1.1 | 1012.6 | 0.0 | N | 0.0 | |
| 19.04.2022 | 03:58 | 4.2 | 79 | 0.9 | 1012.6 | 0.0 | N | 0.0 | |
| 19.04.2022 | 04:04 | 4.3 | 79 | 1.0 | 1012.6 | 0.0 | NNW | 0.0 | |
| 19.04.2022 | 04:08 | 4.4 | 78 | 0.9 | 1012.6 | 0.0 | NNW | 0.0 | |
| 19.04.2022 | 04:14 | 4.3 | 78 | 0.8 | 1012.5 | 0.0 | NNW | 0.0 | |
| 19.04.2022 | 04:18 | 4.3 | 79 | 1.0 | 1012.5 | 0.0 | NNW | 0.0 | |
| 19.04.2022 | 04:24 | 4.3 | 79 | 1.0 | 1012.5 | 0.0 | NNO | 0.0 | |
| 19.04.2022 | 04:28 | 4.2 | 79 | 0.9 | 1012.5 | 0.0 | N | 0.0 | |
| 19.04.2022 | 04:34 | 4.2 | 80 | 1.1 | 1012.5 | 0.0 | N | 0.0 | |
| 19.04.2022 | 04:38 | 4.1 | 80 | 1.0 | 1012.4 | 0.0 | N | 0.0 | |
| 19.04.2022 | 04:44 | 4.1 | 80 | 1.0 | 1012.4 | 0.0 | N | 0.0 | |
| 19.04.2022 | 04:48 | 4.1 | 80 | 1.0 | 1012.4 | 0.0 | N | 0.0 | |
| 19.04.2022 | 04:54 | 3.9 | 80 | 0.8 | 1012.3 | 0.0 | N | 0.0 | |
| 19.04.2022 | 04:58 | 3.8 | 81 | 0.8 | 1012.3 | 0.0 | N | 0.0 | |
| 19.04.2022 | 05:04 | 3.7 | 81 | 0.7 | 1012.3 | 0.0 | N | 0.0 | |
| 19.04.2022 | 05:08 | 3.7 | 81 | 0.7 | 1012.3 | 0.0 | N | 0.0 | |
| 19.04.2022 | 05:14 | 3.6 | 82 | 0.8 | 1012.3 | 0.0 | N | 0.0 | |
| 19.04.2022 | 05:18 | 3.6 | 81 | 0.6 | 1012.3 | 0.0 | N | 0.0 | |
| 19.04.2022 | 05:24 | 3.6 | 82 | 0.8 | 1012.3 | 0.0 | N | 0.0 | |
| 19.04.2022 | 05:28 | 3.6 | 81 | 0.6 | 1012.3 | 0.0 | N | 0.0 | |
| 19.04.2022 | 05:34 | 3.7 | 81 | 0.7 | 1012.3 | 0.0 | N | 0.0 | |
| 19.04.2022 | 05:38 | 3.6 | 82 | 0.8 | 1012.3 | 0.0 | N | 0.0 | |
| 19.04.2022 | 05:44 | 3.8 | 81 | 0.8 | 1012.3 | 0.0 | N | 0.0 | |
| 19.04.2022 | 05:48 | 3.8 | 81 | 0.8 | 1012.3 | 0.0 | N | 0.0 | |
| 19.04.2022 | 05:54 | 3.8 | 81 | 0.8 | 1012.4 | 0.0 | N | 0.0 | |
| 19.04.2022 | 05:58 | 3.9 | 81 | 0.9 | 1012.4 | 0.0 | N | 0.0 | |
| 19.04.2022 | 06:04 | 3.8 | 81 | 0.8 | 1012.3 | 0.0 | N | 0.0 | |
| 19.04.2022 | 06:08 | 3.8 | 81 | 0.8 | 1012.3 | 0.0 | N | 0.0 | |
| 19.04.2022 | 06:14 | 3.8 | 81 | 0.8 | 1012.3 | 0.0 | N | 0.0 | |
| 19.04.2022 | 06:18 | 3.7 | 81 | 0.7 | 1012.3 | 0.0 | N | 0.0 | |
| 19.04.2022 | 06:24 | 3.4 | 82 | 0.6 | 1012.3 | 0.0 | N | 0.0 | |
| 19.04.2022 | 06:28 | 3.4 | 82 | 0.6 | 1012.3 | 0.0 | N | 0.0 | |
| 19.04.2022 | 06:34 | 3.4 | 82 | 0.6 | 1012.4 | 0.0 | N | 0.0 | |
| 19.04.2022 | 06:38 | 3.3 | 82 | 0.5 | 1012.4 | 0.0 | N | 0.0 | |
| 19.04.2022 | 06:44 | 3.1 | 83 | 0.5 | 1012.4 | 0.0 | N | 0.0 | |
| 19.04.2022 | 06:48 | 3.0 | 83 | 0.4 | 1012.4 | 0.0 | N | 0.0 | |
| 19.04.2022 | 06:54 | 2.9 | 83 | 0.3 | 1012.4 | 0.0 | N | 0.0 | |
| 19.04.2022 | 06:58 | 2.8 | 84 | 0.4 | 1012.5 | 0.0 | N | 0.0 | |
| 19.04.2022 | 07:04 | 3.0 | 83 | 0.4 | 1012.5 | 0.0 | N | 0.0 | |
| 19.04.2022 | 07:08 | 3.1 | 83 | 0.5 | 1012.5 | 0.0 | N | 0.0 | |
| 19.04.2022 | 07:14 | 3.2 | 83 | 0.6 | 1012.6 | 0.0 | N | 0.0 | |
| 19.04.2022 | 07:18 | 3.3 | 83 | 0.7 | 1012.6 | 0.0 | N | 0.0 | |
| 19.04.2022 | 07:24 | 3.3 | 83 | 0.7 | 1012.6 | 0.0 | N | 0.0 | |
| 19.04.2022 | 07:28 | 3.3 | 83 | 0.7 | 1012.6 | 0.0 | N | 0.0 | |
| 19.04.2022 | 07:34 | 3.2 | 84 | 0.8 | 1012.5 | 0.0 | N | 0.0 | |
| 19.04.2022 | 07:38 | 3.3 | 84 | 0.9 | 1012.6 | 0.0 | N | 0.0 | |
| 19.04.2022 | 07:44 | 3.5 | 84 | 1.1 | 1012.6 | 0.0 | N | 0.0 | |
| 19.04.2022 | 07:48 | 3.7 | 84 | 1.2 | 1012.7 | 0.0 | N | 0.0 | |
| 19.04.2022 | 07:54 | 4.2 | 83 | 1.6 | 1012.7 | 0.0 | N | 0.0 | |
| 19.04.2022 | 07:58 | 4.4 | 83 | 1.8 | 1012.7 | 0.0 | N | 0.0 | |
| 19.04.2022 | 08:04 | 4.8 | 82 | 2.0 | 1012.8 | 0.0 | N | 1695 | 0.0 |
| 19.04.2022 | 08:08 | 5.1 | 82 | 2.3 | 1012.8 | 0.0 | OSO | 538 | 0.0 |
| 19.04.2022 | 08:14 | 5.6 | 78 | 2.1 | 1012.8 | 0.0 | NO | 501 | 0.0 |
| 19.04.2022 | 08:18 | 6.1 | 77 | 2.4 | 1012.7 | 0.0 | NO | 438 | 0.0 |
| 19.04.2022 | 08:24 | 6.4 | 74 | 2.1 | 1012.8 | 0.0 | NO | 51 | 0.0 |
| 19.04.2022 | 08:28 | 6.7 | 73 | 2.2 | 1012.8 | 0.0 | NO | 53 | 0.0 |
| 19.04.2022 | 08:34 | 7.1 | 73 | 2.6 | 1012.9 | 0.0 | NNO | 158 | 0.0 |
| 19.04.2022 | 08:38 | 7.3 | 72 | 2.6 | 1012.9 | 0.0 | NNO | 302 | 0.0 |
| 19.04.2022 | 08:44 | 7.8 | 71 | 2.9 | 1012.9 | 0.0 | NO | 318 | 0.0 |
| 19.04.2022 | 08:48 | 8.2 | 70 | 3.1 | 1012.9 | 0.0 | NO | 332 | 0.0 |
| 19.04.2022 | 08:54 | 8.5 | 70 | 3.3 | 1013.0 | 0.0 | NNO | 346 | 0.0 |
| 19.04.2022 | 08:58 | 8.8 | 67 | 3.0 | 1013.0 | 0.0 | NNO | 357 | 0.0 |
| 19.04.2022 | 09:04 | 9.4 | 66 | 3.4 | 1013.0 | 0.0 | ONO | 376 | 0.0 |
| 19.04.2022 | 09:08 | 9.6 | 65 | 3.3 | 1013.0 | 0.0 | NNO | 385 | 0.0 |
| 19.04.2022 | 09:14 | 9.9 | 62 | 3.0 | 1012.9 | 0.0 | NNO | 404 | 0.0 |
| 19.04.2022 | 09:18 | 10.2 | 61 | 3.0 | 1012.9 | 0.0 | NNO | 417 | 0.0 |
| 19.04.2022 | 09:24 | 10.6 | 59 | 2.9 | 1013.0 | 0.0 | N | 432 | 0.0 |
| 19.04.2022 | 09:28 | 10.7 | 58 | 2.8 | 1012.9 | 0.0 | NNO | 443 | 0.0 |
| 19.04.2022 | 09:34 | 11.1 | 57 | 2.9 | 1012.9 | 0.0 | ONO | 461 | 0.0 |
| 19.04.2022 | 09:38 | 11.4 | 56 | 2.9 | 1012.8 | 0.0 | NNO | 469 | 0.0 |
| 19.04.2022 | 09:44 | 11.4 | 55 | 2.7 | 1012.8 | 0.0 | NNO | 408 | 0.0 |
| 19.04.2022 | 09:48 | 11.7 | 56 | 3.2 | 1012.7 | 0.0 | NO | 496 | 0.0 |
| 19.04.2022 | 09:54 | 11.9 | 54 | 2.9 | 1012.8 | 0.0 | O | 512 | 0.0 |
| 19.04.2022 | 09:58 | 12.2 | 55 | 3.4 | 1012.7 | 0.0 | NO | 338 | 0.0 |
| 19.04.2022 | 10:04 | 12.4 | 53 | 3.1 | 1012.6 | 0.0 | NNO | 497 | 0.0 |
| 19.04.2022 | 10:08 | 12.5 | 54 | 3.4 | 1012.5 | 0.0 | NO | 330 | 0.0 |
| 19.04.2022 | 10:14 | 12.8 | 54 | 3.7 | 1012.5 | 0.0 | NO | 455 | 0.0 |
| 19.04.2022 | 10:18 | 12.9 | 53 | 3.5 | 1012.5 | 0.0 | NNO | 573 | 0.0 |
| 19.04.2022 | 10:24 | 13.1 | 52 | 3.5 | 1012.4 | 0.0 | ONO | 587 | 0.0 |
| 19.04.2022 | 10:28 | 13.1 | 53 | 3.7 | 1012.4 | 0.0 | ONO | 584 | 0.0 |
| 19.04.2022 | 10:34 | 13.2 | 50 | 3.0 | 1012.4 | 0.0 | ONO | 612 | 0.0 |
| 19.04.2022 | 10:38 | 13.3 | 52 | 3.6 | 1012.4 | 0.0 | ONO | 619 | 0.0 |
| 19.04.2022 | 10:44 | 13.9 | 51 | 3.9 | 1012.4 | 0.0 | ONO | 631 | 0.0 |
| 19.04.2022 | 10:48 | 14.3 | 50 | 4.0 | 1012.4 | 0.0 | NO | 638 | 0.0 |
| 19.04.2022 | 10:54 | 14.3 | 50 | 4.0 | 1012.3 | 0.0 | N | 650 | 0.0 |
| 19.04.2022 | 10:58 | 14.5 | 50 | 4.2 | 1012.3 | 0.0 | N | 151 | 0.0 |
| 19.04.2022 | 11:04 | 14.5 | 48 | 3.6 | 1012.3 | 0.0 | N | 295 | 0.0 |
| 19.04.2022 | 11:08 | 15.0 | 47 | 3.8 | 1012.3 | 0.0 | NO | 682 | 0.0 |
| 19.04.2022 | 11:14 | 15.2 | 46 | 3.7 | 1012.2 | 0.0 | NNW | 689 | 0.0 |
| 19.04.2022 | 11:18 | 15.3 | 46 | 3.7 | 1012.2 | 0.0 | O | 698 | 0.0 |
| 19.04.2022 | 11:24 | 15.9 | 46 | 4.3 | 1012.1 | 0.0 | ONO | 708 | 0.0 |
| 19.04.2022 | 11:28 | 15.8 | 46 | 4.2 | 1012.0 | 0.0 | O | 715 | 0.0 |
| 19.04.2022 | 11:34 | 16.1 | 49 | 5.4 | 1012.0 | 0.0 | NNW | 724 | 0.0 |
| 19.04.2022 | 11:38 | 15.7 | 44 | 3.5 | 1012.0 | 0.0 | NNW | 733 | 0.0 |
| 19.04.2022 | 11:44 | 16.4 | 46 | 4.7 | 1011.9 | 0.0 | O | 742 | 0.0 |
| 19.04.2022 | 11:48 | 16.3 | 46 | 4.7 | 1011.9 | 0.0 | SSO | 745 | 0.0 |
| 19.04.2022 | 11:54 | 16.4 | 42 | 3.5 | 1011.8 | 0.0 | O | 754 | 0.0 |
| 19.04.2022 | 11:58 | 16.7 | 45 | 4.7 | 1011.8 | 0.0 | OSO | 759 | 0.0 |
| 19.04.2022 | 12:04 | 16.7 | 44 | 4.4 | 1011.6 | 0.0 | NO | 765 | 0.0 |
| 19.04.2022 | 12:08 | 17.3 | 43 | 4.6 | 1011.5 | 0.0 | O | 768 | 0.0 |
| 19.04.2022 | 12:14 | 17.6 | 45 | 5.5 | 1011.5 | 0.0 | N | 772 | 0.0 |
| 19.04.2022 | 12:18 | 17.9 | 42 | 4.8 | 1011.5 | 0.0 | N | 779 | 0.0 |
| 19.04.2022 | 12:24 | 17.8 | 40 | 4.0 | 1011.4 | 0.0 | N | 784 | 0.0 |
| 19.04.2022 | 12:28 | 17.8 | 42 | 4.7 | 1011.4 | 0.0 | N | 788 | 0.0 |
| 19.04.2022 | 12:34 | 17.9 | 41 | 4.5 | 1011.3 | 0.0 | NNO | 795 | 0.0 |
| 19.04.2022 | 12:38 | 18.2 | 42 | 5.1 | 1011.4 | 0.0 | NNO | 793 | 0.0 |
| 19.04.2022 | 12:44 | 18.2 | 40 | 4.4 | 1011.3 | 0.0 | NNW | 798 | 0.0 |
| 19.04.2022 | 12:48 | 18.3 | 38 | 3.7 | 1011.3 | 0.0 | NNO | 802 | 0.0 |
| 19.04.2022 | 12:54 | 18.4 | 40 | 4.6 | 1011.3 | 0.0 | NNW | 814 | 0.0 |
| 19.04.2022 | 12:58 | 18.6 | 39 | 4.4 | 1011.2 | 0.0 | WNW | 809 | 0.0 |
| 19.04.2022 | 13:04 | 18.8 | 39 | 4.5 | 1011.2 | 0.0 | N | 812 | 0.0 |
| 19.04.2022 | 13:08 | 18.5 | 35 | 2.7 | 1011.2 | 0.0 | N | 807 | 0.0 |
| 19.04.2022 | 13:14 | 18.2 | 36 | 2.9 | 1011.1 | 0.0 | WNW | 821 | 0.0 |
| 19.04.2022 | 13:18 | 18.4 | 37 | 3.4 | 1011.0 | 0.0 | NO | 823 | 0.0 |
| 19.04.2022 | 13:24 | 18.1 | 37 | 3.2 | 1010.9 | 0.0 | NNW | 816 | 0.0 |
| 19.04.2022 | 13:28 | 18.4 | 39 | 4.2 | 1010.9 | 0.0 | NW | 812 | 0.0 |
| 19.04.2022 | 13:34 | 19.2 | 37 | 4.2 | 1010.8 | 0.0 | NNO | 805 | 0.0 |
| 19.04.2022 | 13:38 | 19.2 | 35 | 3.4 | 1010.8 | 0.0 | NNO | 809 | 0.0 |
| 19.04.2022 | 13:44 | 19.1 | 35 | 3.3 | 1010.8 | 0.0 | N | 812 | 0.0 |
| 19.04.2022 | 13:48 | 18.3 | 36 | 3.0 | 1010.8 | 0.0 | OSO | 810 | 0.0 |
| 19.04.2022 | 13:54 | 18.6 | 36 | 3.2 | 1010.7 | 0.0 | NNO | 821 | 0.0 |
| 19.04.2022 | 13:58 | 18.8 | 37 | 3.8 | 1010.6 | 0.0 | NNO | 830 | 0.0 |
| 19.04.2022 | 14:04 | 18.7 | 37 | 3.7 | 1010.6 | 0.0 | NNO | 789 | 0.0 |
| 19.04.2022 | 14:08 | 19.3 | 42 | 6.1 | 1010.5 | 0.0 | NO | 795 | 0.0 |
| 19.04.2022 | 14:14 | 19.1 | 38 | 4.4 | 1010.6 | 0.0 | NO | 795 | 0.0 |
| 19.04.2022 | 14:18 | 19.2 | 39 | 4.9 | 1010.5 | 0.0 | NNW | 789 | 0.0 |
| 19.04.2022 | 14:24 | 19.4 | 40 | 5.5 | 1010.5 | 0.0 | N | 793 | 0.0 |
| 19.04.2022 | 14:28 | 19.2 | 39 | 4.9 | 1010.5 | 0.0 | WSW | 795 | 0.0 |
| 19.04.2022 | 14:34 | 19.0 | 37 | 4.0 | 1010.4 | 0.0 | ONO | 782 | 0.0 |
| 19.04.2022 | 14:38 | 18.8 | 39 | 4.5 | 1010.3 | 0.0 | ONO | 775 | 0.0 |
| 19.04.2022 | 14:44 | 19.5 | 37 | 4.4 | 1010.3 | 0.0 | N | 768 | 0.0 |
| 19.04.2022 | 14:48 | 19.6 | 38 | 4.9 | 1010.3 | 0.0 | N | 745 | 0.0 |
| 19.04.2022 | 14:54 | 19.5 | 36 | 4.0 | 1010.2 | 0.0 | NNO | 758 | 0.0 |
| 19.04.2022 | 14:58 | 19.4 | 37 | 4.3 | 1010.2 | 0.0 | NNO | 754 | 0.0 |
| 19.04.2022 | 15:04 | 19.4 | 37 | 4.3 | 1010.0 | 0.0 | NW | 744 | 0.0 |
| 19.04.2022 | 15:08 | 19.6 | 39 | 5.3 | 1010.0 | 0.0 | N | 735 | 0.0 |
| 19.04.2022 | 15:14 | 19.7 | 37 | 4.6 | 1010.1 | 0.0 | N | 733 | 0.0 |
| 19.04.2022 | 15:18 | 19.9 | 37 | 4.8 | 1010.0 | 0.0 | NO | 717 | 0.0 |
| 19.04.2022 | 15:24 | 19.8 | 35 | 3.9 | 1010.0 | 0.0 | N | 703 | 0.0 |
| 19.04.2022 | 15:28 | 19.8 | 38 | 5.1 | 1010.0 | 0.0 | N | 712 | 0.0 |
| 19.04.2022 | 15:34 | 19.7 | 37 | 4.6 | 1009.9 | 0.0 | NNW | 693 | 0.0 |
| 19.04.2022 | 15:38 | 19.4 | 33 | 2.7 | 1009.8 | 0.0 | O | 679 | 0.0 |
| 19.04.2022 | 15:44 | 19.8 | 37 | 4.7 | 1009.8 | 0.0 | NNW | 680 | 0.0 |
| 19.04.2022 | 15:48 | 19.9 | 35 | 4.0 | 1009.8 | 0.0 | NNO | 677 | 0.0 |
| 19.04.2022 | 15:54 | 19.7 | 35 | 3.8 | 1009.8 | 0.0 | NO | 666 | 0.0 |
| 19.04.2022 | 15:58 | 19.8 | 34 | 3.5 | 1009.7 | 0.0 | N | 659 | 0.0 |
| 19.04.2022 | 16:04 | 19.7 | 36 | 4.2 | 1009.6 | 0.0 | NNO | 638 | 0.0 |
| 19.04.2022 | 16:08 | 19.8 | 35 | 3.9 | 1009.7 | 0.0 | NNO | 626 | 0.0 |
| 19.04.2022 | 16:14 | 19.6 | 36 | 4.1 | 1009.6 | 0.0 | NNW | 622 | 0.0 |
| 19.04.2022 | 16:18 | 19.6 | 34 | 3.3 | 1009.6 | 0.0 | N | 610 | 0.0 |
| 19.04.2022 | 16:24 | 19.7 | 38 | 5.0 | 1009.7 | 0.0 | NO | 603 | 0.0 |
| 19.04.2022 | 16:28 | 19.7 | 34 | 3.4 | 1009.6 | 0.0 | N | 582 | 0.0 |
| 19.04.2022 | 16:34 | 19.8 | 34 | 3.5 | 1009.6 | 0.0 | N | 591 | 0.0 |
| 19.04.2022 | 16:38 | 19.5 | 35 | 3.6 | 1009.7 | 0.0 | NNO | 559 | 0.0 |
| 19.04.2022 | 16:44 | 19.7 | 32 | 2.5 | 1009.7 | 0.0 | ONO | 550 | 0.0 |
| 19.04.2022 | 16:48 | 19.8 | 35 | 3.9 | 1009.5 | 0.0 | N | 529 | 0.0 |
| 19.04.2022 | 16:54 | 19.7 | 33 | 3.0 | 1009.4 | 0.0 | NNO | 508 | 0.0 |
| 19.04.2022 | 16:58 | 19.7 | 34 | 3.4 | 1009.5 | 0.0 | N | 476 | 0.0 |
| 19.04.2022 | 17:04 | 19.7 | 35 | 3.8 | 1009.4 | 0.0 | NNW | 497 | 0.0 |
| 19.04.2022 | 17:08 | 19.6 | 36 | 4.1 | 1009.4 | 0.0 | NNO | 469 | 0.0 |
| 19.04.2022 | 17:14 | 19.6 | 36 | 4.1 | 1009.3 | 0.0 | NNO | 455 | 0.0 |
| 19.04.2022 | 17:18 | 19.4 | 36 | 3.9 | 1009.3 | 0.0 | NNW | 448 | 0.0 |
| 19.04.2022 | 17:24 | 19.2 | 37 | 4.2 | 1009.3 | 0.0 | NO | 408 | 0.0 |
| 19.04.2022 | 17:28 | 19.3 | 37 | 4.2 | 1009.3 | 0.0 | NO | 401 | 0.0 |
| 19.04.2022 | 17:34 | 19.0 | 38 | 4.4 | 1009.3 | 0.0 | N | 353 | 0.0 |
| 19.04.2022 | 17:38 | 19.0 | 35 | 3.2 | 1009.3 | 0.0 | NW | 343 | 0.0 |
| 19.04.2022 | 17:44 | 18.8 | 35 | 3.0 | 1009.3 | 0.0 | N | 334 | 0.0 |
| 19.04.2022 | 17:48 | 18.8 | 33 | 2.2 | 1009.3 | 0.0 | NNW | 330 | 0.0 |
| 19.04.2022 | 17:54 | 18.5 | 36 | 3.1 | 1009.3 | 0.0 | NNO | 316 | 0.0 |
| 19.04.2022 | 17:58 | 18.4 | 35 | 2.7 | 1009.2 | 0.0 | N | 297 | 0.0 |
| 19.04.2022 | 18:04 | 18.5 | 36 | 3.1 | 1009.2 | 0.0 | N | 236 | 0.0 |
| 19.04.2022 | 18:08 | 18.3 | 36 | 3.0 | 1009.2 | 0.0 | NNO | 237 | 0.0 |
| 19.04.2022 | 18:14 | 18.2 | 35 | 2.5 | 1009.2 | 0.0 | NNO | 225 | 0.0 |
| 19.04.2022 | 18:18 | 18.1 | 38 | 3.6 | 1009.2 | 0.0 | NNO | 181 | 0.0 |
| 19.04.2022 | 18:24 | 18.1 | 38 | 3.6 | 1009.2 | 0.0 | NNO | 188 | 0.0 |
| 19.04.2022 | 18:28 | 18.1 | 38 | 3.6 | 1009.2 | 0.0 | NNO | 186 | 0.0 |
| 19.04.2022 | 18:34 | 17.8 | 39 | 3.7 | 1009.1 | 0.0 | N | 163 | 0.0 |
| 19.04.2022 | 18:38 | 17.7 | 39 | 3.6 | 1009.1 | 0.0 | NNW | 167 | 0.0 |
| 19.04.2022 | 18:44 | 17.6 | 38 | 3.1 | 1009.2 | 0.0 | N | 160 | 0.0 |
| 19.04.2022 | 18:48 | 17.6 | 39 | 3.5 | 1009.1 | 0.0 | NNO | 167 | 0.0 |
| 19.04.2022 | 18:54 | 17.6 | 40 | 3.8 | 1009.2 | 0.0 | N | 120 | 0.0 |
| 19.04.2022 | 18:58 | 17.5 | 39 | 3.4 | 1009.2 | 0.0 | N | 105 | 0.0 |
| 19.04.2022 | 19:04 | 17.2 | 40 | 3.5 | 1009.2 | 0.0 | N | 95 | 0.0 |
| 19.04.2022 | 19:08 | 17.1 | 40 | 3.4 | 1009.3 | 0.0 | N | 83 | 0.0 |
| 19.04.2022 | 19:14 | 16.9 | 41 | 3.6 | 1009.2 | 0.0 | NNO | 60 | 0.0 |
| 19.04.2022 | 19:18 | 16.7 | 41 | 3.4 | 1009.3 | 0.0 | N | 47 | 0.0 |
| 19.04.2022 | 19:24 | 16.6 | 42 | 3.6 | 1009.3 | 0.0 | NNW | 44 | 0.0 |
| 19.04.2022 | 19:28 | 16.4 | 42 | 3.5 | 1009.3 | 0.0 | NNO | 37 | 0.0 |
| 19.04.2022 | 19:34 | 16.2 | 43 | 3.6 | 1009.3 | 0.0 | NNO | 28 | 0.0 |
| 19.04.2022 | 19:38 | 16.0 | 43 | 3.4 | 1009.3 | 0.0 | N | 25 | 0.0 |
| 19.04.2022 | 19:44 | 15.8 | 44 | 3.6 | 1009.4 | 0.0 | N | 21 | 0.0 |
| 19.04.2022 | 19:48 | 15.6 | 45 | 3.7 | 1009.4 | 0.0 | NNW | 19 | 0.0 |
| 19.04.2022 | 19:54 | 15.4 | 44 | 3.2 | 1009.5 | 0.0 | NNW | 16 | 0.0 |
| 19.04.2022 | 19:58 | 15.2 | 45 | 3.3 | 1009.5 | 0.0 | NNW | 16 | 0.0 |
| 19.04.2022 | 20:04 | 15.0 | 45 | 3.2 | 1009.6 | 0.0 | NNW | 12 | 0.0 |
| 19.04.2022 | 20:08 | 14.8 | 45 | 3.0 | 1009.6 | 0.0 | NNW | 11 | 0.0 |
| 19.04.2022 | 20:14 | 14.5 | 47 | 3.3 | 1009.7 | 0.0 | NNW | 7 | 0.0 |
| 19.04.2022 | 20:18 | 14.3 | 48 | 3.4 | 1009.8 | 0.0 | NNW | 5 | 0.0 |
| 19.04.2022 | 20:24 | 14.0 | 48 | 3.2 | 1009.8 | 0.0 | NNW | 0 | 0.0 |
| 19.04.2022 | 20:28 | 13.9 | 49 | 3.4 | 1009.9 | 0.0 | NNW | 0 | 0.0 |
| 19.04.2022 | 20:34 | 13.8 | 48 | 3.0 | 1010.0 | 0.0 | NNW | 0 | 0.0 |
| 19.04.2022 | 20:38 | 13.8 | 48 | 3.0 | 1010.0 | 0.0 | NNW | 0 | 0.0 |
| 19.04.2022 | 20:44 | 13.5 | 49 | 3.0 | 1010.1 | 0.0 | NNW | 0 | 0.0 |
| 19.04.2022 | 20:48 | 13.3 | 49 | 2.8 | 1010.1 | 0.0 | NNW | 0 | 0.0 |
| 19.04.2022 | 20:54 | 13.2 | 50 | 3.0 | 1010.3 | 0.0 | NNW | 0 | 0.0 |
| 19.04.2022 | 20:58 | 13.1 | 51 | 3.2 | 1010.4 | 0.0 | N | 0 | 0.0 |
| 19.04.2022 | 21:04 | 12.8 | 52 | 3.2 | 1010.4 | 0.0 | N | 0 | 0.0 |
| 19.04.2022 | 21:08 | 12.6 | 53 | 3.3 | 1010.5 | 0.0 | N | 0 | 0.0 |
| 19.04.2022 | 21:14 | 12.6 | 54 | 3.5 | 1010.5 | 0.0 | N | 0 | 0.0 |
| 19.04.2022 | 21:18 | 12.5 | 54 | 3.4 | 1010.6 | 0.0 | N | 0 | 0.0 |
| 19.04.2022 | 21:24 | 12.6 | 54 | 3.5 | 1010.7 | 0.0 | N | 0 | 0.0 |
| 19.04.2022 | 21:28 | 12.6 | 54 | 3.5 | 1010.7 | 0.0 | N | 0 | 0.0 |
| 19.04.2022 | 21:34 | 12.4 | 55 | 3.6 | 1010.7 | 0.0 | N | 0 | 0.0 |
| 19.04.2022 | 21:38 | 12.4 | 55 | 3.6 | 1010.9 | 0.0 | NNO | 0 | 0.0 |
| 19.04.2022 | 21:44 | 12.6 | 54 | 3.5 | 1011.0 | 0.0 | N | 0 | 0.0 |
| 19.04.2022 | 21:48 | 12.7 | 54 | 3.6 | 1011.0 | 0.0 | NO | 0 | 0.0 |
| 19.04.2022 | 21:54 | 12.9 | 53 | 3.5 | 1011.2 | 0.0 | NNO | 0 | 0.0 |
| 19.04.2022 | 21:58 | 12.8 | 54 | 3.7 | 1011.2 | 0.0 | NNO | 0 | 0.0 |
| 19.04.2022 | 22:04 | 12.8 | 53 | 3.5 | 1011.3 | 0.0 | NO | 0 | 0.0 |
| 19.04.2022 | 22:08 | 12.9 | 52 | 3.3 | 1011.3 | 0.0 | NO | 0 | 0.0 |
| 19.04.2022 | 22:14 | 13.2 | 52 | 3.6 | 1011.4 | 0.0 | NO | 0 | 0.0 |
| 19.04.2022 | 22:18 | 13.2 | 51 | 3.3 | 1011.4 | 0.0 | N | 0 | 0.0 |
| 19.04.2022 | 22:24 | 13.2 | 51 | 3.3 | 1011.5 | 0.0 | ONO | 0 | 0.0 |
| 19.04.2022 | 22:28 | 13.2 | 50 | 3.0 | 1011.6 | 0.0 | NO | 0 | 0.0 |
| 19.04.2022 | 22:34 | 13.5 | 48 | 2.7 | 1011.6 | 0.0 | NO | 0 | 0.0 |
| 19.04.2022 | 22:38 | 13.6 | 47 | 2.5 | 1011.6 | 0.0 | NNO | 0 | 0.0 |
| 19.04.2022 | 22:44 | 13.5 | 46 | 2.1 | 1011.8 | 0.0 | O | 0 | 0.0 |
| 19.04.2022 | 22:48 | 13.7 | 46 | 2.3 | 1011.9 | 0.0 | W | 0 | 0.0 |
| 19.04.2022 | 22:54 | 13.5 | 46 | 2.1 | 1011.9 | 0.0 | ONO | 0 | 0.0 |
| 19.04.2022 | 22:58 | 13.6 | 45 | 1.9 | 1011.9 | 0.0 | ONO | 0 | 0.0 |
| 19.04.2022 | 23:04 | 13.6 | 44 | 1.6 | 1011.9 | 0.0 | ONO | 0 | 0.0 |
| 19.04.2022 | 23:08 | 13.4 | 45 | 1.7 | 1012.0 | 0.0 | O | 0 | 0.0 |
| 19.04.2022 | 23:14 | 13.4 | 45 | 1.7 | 1012.1 | 0.0 | O | 0 | 0.0 |
| 19.04.2022 | 23:18 | 13.3 | 45 | 1.6 | 1012.1 | 0.0 | O | 0 | 0.0 |
| 19.04.2022 | 23:24 | 13.2 | 46 | 1.8 | 1012.2 | 0.0 | O | 0 | 0.0 |
| 19.04.2022 | 23:28 | 13.2 | 46 | 1.8 | 1012.1 | 0.0 | O | 0 | 0.0 |
| 19.04.2022 | 23:34 | 12.9 | 46 | 1.6 | 1012.3 | 0.0 | NO | 0 | 0.0 |
| 19.04.2022 | 23:38 | 12.9 | 47 | 1.9 | 1012.3 | 0.0 | O | 0 | 0.0 |
| 19.04.2022 | 23:44 | 12.7 | 47 | 1.7 | 1012.4 | 0.0 | NO | 0 | 0.0 |
| 19.04.2022 | 23:48 | 12.7 | 47 | 1.7 | 1012.4 | 0.0 | ONO | 0 | 0.0 |
| 19.04.2022 | 23:54 | 12.5 | 48 | 1.8 | 1012.4 | 0.0 | ONO | 0 | 0.0 |
| 19.04.2022 | 23:58 | 12.4 | 48 | 1.7 | 1012.5 | 0.0 | ONO | 0 | 0.0 |